Starlink 11571

operational
NORAD ID: 62986 Int'l Des: 2025-031 Owner: SPXS Country: US Constellation: starlink
LEOCIRCULAR

关于 Starlink 11571

正在加载描述...

实时位置

正在加载3D地球...

即将过境

高度历史

Altitude vs Time

uPlot chart will show altitude changes over time

两行轨道根数

1 62986U 25031F 26035.47744720 .00224659 00000-0 16986-2 0 9993
2 62986 42.9987 201.2335 0001995 244.7076 115.3585 15.70962954 57527
Epoch: Feb 4, 2026 • Age: 9 hours

当前状态

高度 356.1 km
速度 7.70 km/s
星下点 20.82°N, 136.61°E
发射日期 Feb 11, 2025
运行时间 0.9 years
类型 internet

技术详情

分类 Payload
质量 960.00 kg
干质量 910.00 kg
总质量 960.00 kg
长度 0.30 m
直径 4.10 m
跨度 29.00 m
形状 Box + pan
制造商 SPXS
平台类型 Starlink V2MD
阶段状态 In Orbit
所有者/国家 SPXS/US

大型星座

Loading constellations...